Starlink 4509

operational
NORAD ID: 53404 Int'l Des: 2022-097 Owner: SPXS Country: US Constellation: starlink
LEOCIRCULAR

About Starlink 4509

Description loading...

Live Position

Loading 3D Globe...

Upcoming Passes

Altitude History

Altitude vs Time

uPlot chart will show altitude changes over time

Two-Line Element Set

1 53404U 22097S 25346.87352764 .00000531 00000-0 51442-4 0 9997
2 53404 53.2196 143.7873 0001352 99.0566 261.0580 15.08833476185543
Epoch: Dec 12, 2025 • Age: 17 hours

Current Status

Altitude 550.7 km
Velocity 7.59 km/s
Sub-Earth Point -33.23°S, 59.58°E
Launch Date Aug 10, 2022
Age 3.3 years
Type internet

Technical Details

Classification Payload
Mass 297.00 kg
Dry Mass 275.00 kg
Total Mass 297.00 kg
Length 0.20 m
Diameter 2.80 m
Span 9.00 m
Shape Box + pan
Manufacturer SPXS
Bus Type Starlink
Phase Status In Orbit
Owner/State SPXS/US

Large Constellations

Loading constellations...